Find Starlink 30540

NORAD ID: 58002 Int'l Des: 2023-153 Owner: SPXS Country: US Constellation: starlink operational
LEOCIRCULAR

实时位置

正在加载3D地球...

关于 Starlink 30540

正在加载描述...

即将过境

Passes for default location (London). Set your location on the main map for personalized predictions.

高度历史

Loading altitude history...

两行轨道根数

1 58002U 23153M 26123.25271032 .00000365 00000-0 22811-4 0 9997
2 58002 43.0016 118.6726 0001742 262.0304 98.0350 15.27571410143144
Epoch: May 3, 2026 • Age: 15 hours

当前状态

高度 492.3 km
速度 7.62 km/s
星下点 -35.69°S, 164.9°E
发射日期 Oct 5, 2023
运行时间 2.5 years
类型 internet

技术详情

分类 Payload
质量 730.00 kg
干质量 700.00 kg
总质量 730.00 kg
长度 0.30 m
直径 4.10 m
跨度 29.00 m
形状 Box + pan
制造商 SPXS
平台类型 Starlink V2M
阶段状态 In Orbit
所有者/国家 SPXS/US

Most Searched